• In Italy
  • List of Countries
  • For 7 days
  • Water Temperature
  • Satellite Maps
  • Weather Map
  • Weather Widgets
  • user-avatar
    Login

    Hourly Weather Abovyan

    Today, 23 October, Monday

    Time Temperature Precipitation Wind Pressure Humidity
    00:00 +10°C° 0 mm 2 mps 668 mmHg 42%
    01:00 +10°C° 0 mm 2 mps 668 mmHg 44%
    02:00 +9°C° 0 mm 2 mps 668 mmHg 45%
    03:00 +9°C° 0 mm 2 mps 668 mmHg 47%
    04:00 +9°C° 0 mm 2 mps 668 mmHg 49%
    05:00 +9°C° 0 mm 2 mps 668 mmHg 51%
    06:00 +9°C° 0 mm 1 mps 669 mmHg 53%
    07:00 +10°C° 0 mm 2 mps 669 mmHg 48%
    08:00 +13°C° 0 mm 2 mps 670 mmHg 43%
    09:00 +15°C° 0 mm 2 mps 670 mmHg 39%
    10:00 +16°C° 0 mm 2 mps 670 mmHg 36%
    11:00 +17°C° 0 mm 2 mps 671 mmHg 34%
    12:00 +18°C° 0 mm 3 mps 671 mmHg 32%
    13:00 +18°C° 0 mm 3 mps 671 mmHg 31%
    14:00 +18°C° 0 mm 3 mps 671 mmHg 31%
    15:00 +19°C° 0 mm 3 mps 670 mmHg 30%
    16:00 +17°C° 0 mm 3 mps 670 mmHg 33%
    17:00 +15°C° 0 mm 2 mps 670 mmHg 37%
    18:00 +14°C° 0 mm 2 mps 671 mmHg 41%
    19:00 +13°C° 0 mm 2 mps 671 mmHg 41%
    20:00 +13°C° 0 mm 2 mps 671 mmHg 41%
    21:00 +12°C° 0 mm 1 mps 671 mmHg 42%
    22:00 +12°C° 0 mm 1 mps 671 mmHg 42%
    23:00 +12°C° 0 mm 1 mps 671 mmHg 43%

    Tomorrow, 24 October, Tuesday

    Time Temperature Precipitation Wind Pressure Humidity
    00:00 +11°C° 0 mm 1 mps 672 mmHg 44%
    01:00 +11°C° 0 mm 1 mps 672 mmHg 44%
    02:00 +11°C° 0 mm 1 mps 672 mmHg 45%
    03:00 +10°C° 0 mm 1 mps 672 mmHg 46%
    04:00 +10°C° 0 mm 1 mps 672 mmHg 46%
    05:00 +10°C° 0 mm 1 mps 672 mmHg 46%
    06:00 +10°C° 0 mm 1 mps 672 mmHg 46%
    07:00 +12°C° 0 mm 1 mps 672 mmHg 41%
    08:00 +14°C° 0 mm 2 mps 673 mmHg 36%
    09:00 +16°C° 0 mm 2 mps 673 mmHg 31%
    10:00 +17°C° 0 mm 3 mps 673 mmHg 29%
    11:00 +18°C° 0 mm 3 mps 673 mmHg 27%
    12:00 +19°C° 0 mm 3 mps 673 mmHg 25%
    13:00 +19°C° 0 mm 4 mps 673 mmHg 26%
    14:00 +19°C° 0 mm 4 mps 672 mmHg 26%
    15:00 +20°C° 0 mm 4 mps 672 mmHg 26%
    16:00 +18°C° 0 mm 3 mps 672 mmHg 30%
    17:00 +16°C° 0 mm 3 mps 672 mmHg 33%
    18:00 +14°C° 0 mm 2 mps 672 mmHg 37%
    19:00 +14°C° 0 mm 2 mps 672 mmHg 37%
    20:00 +13°C° 0 mm 2 mps 673 mmHg 37%
    21:00 +13°C° 0 mm 2 mps 673 mmHg 37%
    22:00 +13°C° 0 mm 2 mps 673 mmHg 38%
    23:00 +13°C° 0 mm 2 mps 673 mmHg 38%

    Day after tomorrow, 25 October, Wednesday

    Time Temperature Precipitation Wind Pressure Humidity
    00:00 +12°C° 0 mm 2 mps 673 mmHg 39%
    01:00 +12°C° 0 mm 2 mps 673 mmHg 40%
    02:00 +12°C° 0 mm 2 mps 673 mmHg 41%
    03:00 +12°C° 0 mm 2 mps 673 mmHg 42%
    04:00 +12°C° 0 mm 2 mps 673 mmHg 43%
    05:00 +10°C° 0 mm 2 mps 673 mmHg 44%
    06:00 +10°C° 0 mm 2 mps 673 mmHg 45%
    07:00 +13°C° 0 mm 2 mps 674 mmHg 41%
    08:00 +15°C° 0 mm 2 mps 674 mmHg 37%
    09:00 +17°C° 0 mm 3 mps 675 mmHg 32%
    10:00 +18°C° 0 mm 3 mps 675 mmHg 31%
    11:00 +20°C° 0 mm 3 mps 675 mmHg 29%
    12:00 +21°C° 0 mm 3 mps 674 mmHg 27%
    13:00 +21°C° 0 mm 3 mps 674 mmHg 27%
    14:00 +21°C° 0 mm 4 mps 674 mmHg 27%
    15:00 +21°C° 0 mm 4 mps 673 mmHg 27%
    16:00 +19°C° 0 mm 3 mps 673 mmHg 31%
    17:00 +18°C° 0 mm 3 mps 673 mmHg 34%
    18:00 +16°C° 0 mm 2 mps 673 mmHg 37%
    19:00 +15°C° 0 mm 2 mps 673 mmHg 38%
    20:00 +15°C° 0 mm 2 mps 673 mmHg 38%
    21:00 +15°C° 0 mm 2 mps 674 mmHg 39%
    22:00 +14°C° 0 mm 2 mps 674 mmHg 40%
    23:00 +14°C° 0 mm 2 mps 673 mmHg 40%

    26 October, Thursday

    Time Temperature Precipitation Wind Pressure Humidity
    00:00 +14°C° 0 mm 2 mps 673 mmHg 41%
    01:00 +14°C° 0 mm 2 mps 673 mmHg 41%
    02:00 +13°C° 0 mm 2 mps 673 mmHg 41%
    03:00 +13°C° 0 mm 2 mps 673 mmHg 42%
    04:00 +13°C° 0 mm 2 mps 673 mmHg 42%
    05:00 +13°C° 0 mm 2 mps 673 mmHg 43%
    06:00 +12°C° 0 mm 2 mps 672 mmHg 43%
    07:00 +14°C° 0 mm 2 mps 673 mmHg 39%
    08:00 +16°C° 0 mm 2 mps 673 mmHg 35%
    09:00 +18°C° 0 mm 2 mps 674 mmHg 31%
    10:00 +19°C° 0 mm 3 mps 673 mmHg 29%
    11:00 +21°C° 0 mm 3 mps 673 mmHg 26%
    12:00 +22°C° 0 mm 4 mps 673 mmHg 24%
    13:00 +22°C° 0 mm 4 mps 672 mmHg 24%
    14:00 +22°C° 0 mm 4 mps 672 mmHg 23%
    15:00 +22°C° 0 mm 4 mps 672 mmHg 23%
    16:00 +20°C° 0 mm 3 mps 671 mmHg 26%
    17:00 +18°C° 0 mm 3 mps 671 mmHg 29%
    18:00 +17°C° 0 mm 2 mps 671 mmHg 33%
    19:00 +16°C° 0 mm 2 mps 671 mmHg 33%
    20:00 +15°C° 0 mm 2 mps 671 mmHg 33%
    21:00 +15°C° 0 mm 1 mps 672 mmHg 34%
    22:00 +14°C° 0 mm 1 mps 672 mmHg 35%
    23:00 +14°C° 0 mm 1 mps 672 mmHg 36%

    27 October, Friday

    Time Temperature Precipitation Wind Pressure Humidity
    00:00 +14°C° 0 mm 1 mps 672 mmHg 38%
    01:00 +13°C° 0 mm 1 mps 672 mmHg 42%
    02:00 +13°C° 0 mm 1 mps 672 mmHg 45%
    03:00 +12°C° 0 mm 1 mps 672 mmHg 49%
    04:00 +12°C° 0 mm 1 mps 672 mmHg 52%
    05:00 +12°C° 0 mm 1 mps 672 mmHg 55%
    06:00 +11°C° 0 mm 1 mps 672 mmHg 57%
    07:00 +13°C° 0 mm 1 mps 672 mmHg 54%
    08:00 +15°C° 0 mm 2 mps 673 mmHg 51%
    09:00 +16°C° 0 mm 2 mps 673 mmHg 48%
    10:00 +17°C° 0 mm 2 mps 673 mmHg 45%
    11:00 +18°C° 0 mm 2 mps 673 mmHg 42%
    12:00 +19°C° 0 mm 3 mps 673 mmHg 38%
    13:00 +19°C° 0 mm 3 mps 673 mmHg 37%
    14:00 +19°C° 0 mm 3 mps 672 mmHg 36%
    15:00 +20°C° 0 mm 3 mps 672 mmHg 35%
    16:00 +18°C° 0 mm 3 mps 672 mmHg 40%
    17:00 +16°C° 0 mm 2 mps 672 mmHg 44%
    18:00 +15°C° 0 mm 2 mps 671 mmHg 49%
    19:00 +14°C° 0 mm 2 mps 671 mmHg 50%
    20:00 +14°C° 0 mm 2 mps 671 mmHg 52%
    21:00 +13°C° 0 mm 2 mps 671 mmHg 54%
    22:00 +13°C° 0 mm 2 mps 671 mmHg 54%
    23:00 +13°C° 0 mm 2 mps 671 mmHg 53%

    28 October, Saturday

    Time Temperature Precipitation Wind Pressure Humidity
    00:00 +12°C° 0 mm 1 mps 671 mmHg 52%
    01:00 +12°C° 0 mm 1 mps 671 mmHg 51%
    02:00 +12°C° 0 mm 1 mps 671 mmHg 49%
    03:00 +12°C° 0 mm 1 mps 671 mmHg 47%
    04:00 +12°C° 0 mm 2 mps 671 mmHg 46%
    05:00 +10°C° 0 mm 2 mps 671 mmHg 44%
    06:00 +10°C° 0 mm 2 mps 671 mmHg 43%
    07:00 +13°C° 0 mm 2 mps 671 mmHg 39%
    08:00 +14°C° 0 mm 3 mps 671 mmHg 36%
    09:00 +17°C° 0 mm 3 mps 672 mmHg 32%
    10:00 +19°C° 0 mm 4 mps 672 mmHg 31%
    11:00 +20°C° 0 mm 5 mps 672 mmHg 30%
    12:00 +21°C° 0 mm 5 mps 672 mmHg 29%
    13:00 +20°C° 0.2 mm 5 mps 671 mmHg 35%
    14:00 +19°C° 0.2 mm 5 mps 670 mmHg 41%
    15:00 +18°C° 0.2 mm 4 mps 669 mmHg 47%
    16:00 +17°C° 0.6 mm 4 mps 669 mmHg 53%
    17:00 +16°C° 0.6 mm 3 mps 669 mmHg 60%
    18:00 +14°C° 0.6 mm 3 mps 669 mmHg 66%
    19:00 +14°C° 1.1 mm 3 mps 669 mmHg 69%
    20:00 +14°C° 1.1 mm 3 mps 669 mmHg 71%
    21:00 +13°C° 1.1 mm 3 mps 669 mmHg 73%
    22:00 +13°C° 1.1 mm 3 mps 669 mmHg 75%
    23:00 +13°C° 1.1 mm 3 mps 668 mmHg 76%

    29 October, Sunday

    Time Temperature Precipitation Wind Pressure Humidity
    00:00 +13°C° 1.1 mm 3 mps 668 mmHg 77%
    01:00 +12°C° 0.9 mm 3 mps 668 mmHg 78%
    02:00 +12°C° 0.9 mm 3 mps 668 mmHg 79%
    03:00 +12°C° 0.9 mm 3 mps 667 mmHg 80%
    04:00 +12°C° 0.2 mm 3 mps 667 mmHg 79%
    05:00 +13°C° 0.2 mm 2 mps 667 mmHg 78%
    06:00 +13°C° 0.2 mm 2 mps 667 mmHg 78%
    07:00 +13°C° 0.1 mm 2 mps 668 mmHg 73%
    08:00 +14°C° 0.1 mm 2 mps 668 mmHg 69%
    09:00 +14°C° 0.1 mm 3 mps 668 mmHg 65%
    10:00 +16°C° 0.1 mm 3 mps 668 mmHg 60%
    11:00 +17°C° 0.1 mm 3 mps 668 mmHg 56%
    12:00 +18°C° 0.1 mm 4 mps 668 mmHg 52%
    13:00 +18°C° 0 mm 4 mps 668 mmHg 50%
    14:00 +18°C° 0 mm 4 mps 668 mmHg 49%
    15:00 +19°C° 0 mm 4 mps 668 mmHg 47%
    16:00 +17°C° 0 mm 4 mps 668 mmHg 51%
    17:00 +16°C° 0 mm 3 mps 668 mmHg 54%
    18:00 +14°C° 0 mm 3 mps 668 mmHg 58%
    19:00 +14°C° 0 mm 2 mps 669 mmHg 58%
    20:00 +14°C° 0 mm 2 mps 669 mmHg 58%
    21:00 +14°C° 0 mm 2 mps 669 mmHg 58%
    22:00 +13°C° 0 mm 2 mps 669 mmHg 58%
    23:00 +13°C° 0 mm 2 mps 669 mmHg 58%
    Show more